Weather History for KHRX - June, 2013

Change the Weather History Date:

Friday, June 14, 2013

  Actual Average (KAMA) Record (KAMA)
Temperature  
Mean Temperature 74 °F 74 °F  
Max Temperature 86 °F 88 °F 107 °F (1953)
Min Temperature 64 °F 61 °F 44 °F (1947)
Degree Days  
Heating Degree Days 0 0  
Month to date heating degree days 5  
Since 1 June heating degree days 5  
Since 1 July heating degree days 4176  
Cooling Degree Days 10 9  
Month to date cooling degree days 108  
Year to date cooling degree days 233  
Since 1 June cooling degree days 108  
Growing Degree Days 24 (Base 50)    
Moisture  
Dew Point 59 °F    
Average Humidity 62    
Maximum Humidity 87    
Minimum Humidity 27    
Precipitation  
Precipitation 0.08 in 0.11 in 1.62 in (1962)
Month to date precipitation 1.62  
Year to date precipitation 7.98  
Snow  
Snow 0.00 in 0.00 in T in (2008)
Month to date snowfall 0.0  
Since 1 June snowfall 0.0  
Since 1 July snowfall 17.8  
Snow Depth -    
Sea Level Pressure  
Sea Level Pressure 30.07 in    
Wind  
Wind Speed 11 mph (South)    
Max Wind Speed 24 mph    
Max Gust Speed 26 mph    
Visibility 10 miles    
Events Rain , Thunderstorm    
T = Trace of Precipitation, MM = Missing Value Source: NWS Daily Summary

Daily Weather History Graph

Daily Weather History Graph

Search for Another Location

Airport or City:

Trip Planner

Search our weather history database for the weather conditions in past years. The results will help you decide how hot, cold, wet, or windy it might be!

Date:

Astronomy

Jun. 14, 2013 Rise Set
Actual Time 6:35 AM CDT 9:04 PM CDT
Civil Twilight 6:05 AM CDT 9:33 PM CDT
Nautical Twilight 5:29 AM CDT 10:10 PM CDT
Astronomical Twilight 4:48 AM CDT 10:50 PM CDT
Moon 12:00 PM CDT (6/14) 12:21 AM CDT (6/14)
Length of Visible Light 15h 28m
Length of Day
14h 29m
Waxing Crescent, 30% of the Moon is Illuminated
Jun 14
Waxing Crescent
Jun 16
First Quarter
Jun 23
Full
Jun 29
Last Quarter
Jul 8
New

Hourly Weather History & Observations

Time (CDT) Temp. Heat Index Dew Point Humidity Pressure Visibility Wind Dir Wind Speed Gust Speed Precip Events Conditions
12:15 AM 76.5 °F - 54.7 °F 47% 30.08 in 10.0 mi SSE 10.4 mph - N/A   Clear
12:35 AM 75.6 °F - 55.0 °F 49% 30.09 in 10.0 mi SSE 10.4 mph - N/A   Clear
12:55 AM 74.7 °F - 55.4 °F 51% 30.09 in 10.0 mi South 8.1 mph - N/A   Clear
1:15 AM 75.2 °F - 56.7 °F 52% 30.09 in 10.0 mi South 17.3 mph - N/A   Clear
1:35 AM 75.2 °F - 58.8 °F 57% 30.09 in 7.0 mi South 18.4 mph - N/A   Clear
1:55 AM 74.5 °F - 59.0 °F 58% 30.09 in 7.0 mi SSW 12.7 mph - N/A   Clear
2:15 AM 73.6 °F - 59.4 °F 61% 30.09 in 7.0 mi SSW 12.7 mph - N/A   Clear
2:35 AM 72.5 °F - 59.5 °F 64% 30.09 in 10.0 mi SSW 12.7 mph - N/A   Clear
2:55 AM 71.8 °F - 59.9 °F 66% 30.09 in 10.0 mi SSW 11.5 mph - N/A   Clear
3:15 AM 71.1 °F - 59.9 °F 68% 30.09 in 10.0 mi SSW 9.2 mph - N/A   Clear
3:35 AM 70.7 °F - 59.9 °F 69% 30.08 in 10.0 mi SSW 10.4 mph - N/A   Clear
3:55 AM 70.7 °F - 60.1 °F 69% 30.08 in 10.0 mi SW 8.1 mph - N/A   Clear
4:15 AM 69.8 °F - 59.9 °F 71% 30.08 in 10.0 mi SSW 8.1 mph - N/A   Clear
4:35 AM 68.9 °F - 59.9 °F 73% 30.07 in 10.0 mi SSW 4.6 mph - N/A   Clear
4:55 AM 68.4 °F - 59.9 °F 74% 30.07 in 10.0 mi SSW 4.6 mph - N/A   Clear
5:15 AM 67.5 °F - 59.5 °F 76% 30.07 in 10.0 mi SW 3.5 mph - N/A   Clear
5:35 AM 67.3 °F - 59.5 °F 76% 30.07 in 10.0 mi SSW 5.8 mph - N/A   Clear
5:55 AM 66.4 °F - 59.2 °F 78% 30.08 in 10.0 mi South 3.5 mph - N/A   Clear
6:15 AM 65.8 °F - 59.2 °F 79% 30.08 in 10.0 mi SSW 3.5 mph - N/A   Clear
6:35 AM 64.6 °F - 58.5 °F 80% 30.08 in 10.0 mi SSW 4.6 mph - N/A   Clear
6:55 AM 64.6 °F - 59.0 °F 82% 30.08 in 10.0 mi SSW 3.5 mph - N/A   Clear
7:15 AM 65.5 °F - 59.2 °F 80% 30.08 in 10.0 mi Calm Calm - N/A   Clear
7:35 AM 65.7 °F - 59.4 °F 80% 30.08 in 7.0 mi South 4.6 mph - N/A   Clear
7:55 AM 66.2 °F - 59.9 °F 80% 30.09 in 10.0 mi South 4.6 mph - N/A   Clear
8:15 AM 67.8 °F - 60.6 °F 78% 30.10 in 10.0 mi SSE 5.8 mph - N/A   Clear
8:35 AM 70.5 °F - 61.2 °F 72% 30.10 in 10.0 mi South 9.2 mph - N/A   Clear
8:55 AM 72.5 °F - 61.3 °F 68% 30.10 in 10.0 mi South 9.2 mph - N/A   Clear
9:15 AM 75.6 °F - 61.2 °F 61% 30.10 in 10.0 mi SSW 11.5 mph - N/A   Clear
9:35 AM 76.3 °F - 61.0 °F 59% 30.10 in 10.0 mi South 12.7 mph - N/A   Clear
9:55 AM 77.2 °F - 60.6 °F 56% 30.11 in 10.0 mi South 11.5 mph 16.1 mph N/A   Clear
10:15 AM 79.2 °F - 60.1 °F 52% 30.10 in 10.0 mi South 13.8 mph - N/A   Clear
10:35 AM 79.0 °F - 60.3 °F 53% 30.10 in 10.0 mi South 15.0 mph - N/A   Clear
10:55 AM 79.7 °F - 59.9 °F 51% 30.10 in 10.0 mi South 13.8 mph 18.4 mph N/A   Clear
11:15 AM 80.2 °F 80.7 °F 58.1 °F 47% 30.10 in 10.0 mi SSE 16.1 mph 21.9 mph N/A   Clear
11:35 AM 79.2 °F - 59.4 °F 51% 30.10 in 10.0 mi South 13.8 mph 19.6 mph N/A   Clear
11:55 AM 79.3 °F - 59.9 °F 51% 30.10 in 10.0 mi South 13.8 mph 17.3 mph N/A   Clear
12:15 PM 82.6 °F 81.7 °F 54.9 °F 38% 30.10 in 10.0 mi South 17.3 mph 21.9 mph N/A   Clear
12:35 PM 85.6 °F 84.0 °F 54.1 °F 34% 30.09 in 10.0 mi South 16.1 mph 23.0 mph N/A   Clear
12:55 PM 84.7 °F 83.3 °F 54.0 °F 35% 30.09 in 10.0 mi South 17.3 mph 24.2 mph N/A   Clear
1:15 PM 82.6 °F 81.7 °F 54.9 °F 38% 30.09 in 10.0 mi South 18.4 mph - N/A   Clear
1:35 PM 82.4 °F 81.4 °F 53.6 °F 37% 30.09 in 10.0 mi South 17.3 mph 23.0 mph N/A   Clear
1:55 PM 81.7 °F 81.1 °F 54.1 °F 39% 30.09 in 10.0 mi South 19.6 mph 24.2 mph N/A   Clear
2:15 PM 79.7 °F - 57.2 °F 46% 30.08 in 10.0 mi South 11.5 mph - N/A   Clear
2:35 PM 80.4 °F 80.8 °F 57.7 °F 46% 30.07 in 10.0 mi South 24.2 mph - N/A   Clear
2:55 PM 81.7 °F 81.5 °F 57.4 °F 43% 30.05 in 10.0 mi South 19.6 mph 25.3 mph N/A   Clear
3:15 PM 84.2 °F 83.3 °F 56.5 °F 39% 30.04 in 10.0 mi South 15.0 mph 23.0 mph N/A   Clear
3:35 PM 83.1 °F 82.2 °F 55.0 °F 38% 30.03 in 10.0 mi SSE 16.1 mph 21.9 mph N/A   Clear
3:55 PM 84.0 °F 82.7 °F 54.3 °F 36% 30.02 in 10.0 mi South 15.0 mph 25.3 mph N/A   Clear
4:15 PM 84.9 °F 83.4 °F 54.1 °F 35% 30.01 in 10.0 mi SSE 11.5 mph 18.4 mph N/A   Clear
4:35 PM 85.8 °F - 48.4 °F 27% 30.00 in 10.0 mi SSE 13.8 mph 24.2 mph N/A   Clear
4:55 PM 84.6 °F - 50.7 °F 31% 30.00 in 10.0 mi SSE 18.4 mph 23.0 mph N/A   Scattered Clouds
5:15 PM 82.6 °F 81.5 °F 53.4 °F 36% 30.00 in 10.0 mi SSE 19.6 mph - N/A   Scattered Clouds
5:35 PM 77.2 °F - 59.2 °F 54% 30.02 in 10.0 mi SSE 17.3 mph 25.3 mph N/A   Drizzle
5:55 PM 72.7 °F - 59.9 °F 64% 30.01 in 10.0 mi ESE 16.1 mph - N/A   Light Drizzle
6:15 PM 73.4 °F - 60.8 °F 65% 30.02 in 10.0 mi South 10.4 mph - N/A   Mostly Cloudy
6:35 PM 76.1 °F - 57.0 °F 51% 30.01 in 10.0 mi SSE 13.8 mph - N/A   Mostly Cloudy
6:55 PM 77.0 °F - 57.6 °F 51% 30.01 in 10.0 mi SSE 8.1 mph - N/A   Mostly Cloudy
7:15 PM 74.8 °F - 61.2 °F 62% 30.03 in 10.0 mi South 20.7 mph 26.5 mph N/A   Mostly Cloudy
7:35 PM 72.5 °F - 62.1 °F 70% 30.04 in 10.0 mi South 18.4 mph - N/A   Scattered Clouds
7:55 PM 70.3 °F - 63.5 °F 79% 30.04 in 10.0 mi South 15.0 mph 19.6 mph N/A   Scattered Clouds
8:15 PM 68.5 °F - 64.2 °F 86% 30.04 in 10.0 mi SSW 11.5 mph 17.3 mph N/A Rain Rain
8:35 PM 68.0 °F - 63.9 °F 87% 30.05 in 7.0 mi South 10.4 mph - 0.02 in Rain , Thunderstorm Light Thunderstorms and Rain
8:55 PM 68.4 °F - 64.4 °F 87% 30.05 in 10.0 mi SSE 9.2 mph - 0.04 in Rain Light Rain
9:15 PM 68.9 °F - 64.6 °F 86% 30.05 in 10.0 mi SSE 10.4 mph - 0.01 in Rain Light Rain
9:35 PM 68.9 °F - 64.2 °F 85% 30.05 in 10.0 mi SSE 11.5 mph - 0.03 in Rain Light Rain
9:55 PM 68.4 °F - 64.0 °F 86% 30.06 in 10.0 mi SSE 6.9 mph - 0.04 in   Light Drizzle
10:15 PM 68.9 °F - 63.7 °F 83% 30.07 in 10.0 mi SSE 9.2 mph - N/A   Clear
10:35 PM 68.4 °F - 63.7 °F 85% 30.07 in 10.0 mi SE 12.7 mph - N/A   Light Drizzle
10:55 PM 68.0 °F - 63.0 °F 84% 30.07 in 10.0 mi SE 15.0 mph - N/A   Scattered Clouds
11:15 PM 67.3 °F - 63.0 °F 86% 30.06 in 10.0 mi SE 15.0 mph - N/A   Scattered Clouds
11:35 PM 67.1 °F - 63.0 °F 87% 30.03 in 10.0 mi SE 19.6 mph - N/A   Clear
11:55 PM 67.3 °F - 63.0 °F 86% 30.03 in 10.0 mi SSE 19.6 mph 25.3 mph N/A   Clear